Tracking 19709 objects as of 17-Jun-2019
HD Live streaming from Space Station
objects crossing your sky now

CICERO 10

Track CICERO 10 now!
10-day predictions


NORAD ID: 43690
Int'l Code: 2018-088A
Perigee: 504.4 km
Apogee: 523.7 km
Inclination: 85.0 °
Period: 94.8 minutes
Semi major axis: 6885 km
RCS: Unknown
Launch date: November 11, 2018
Source: United States (US)
Launch site: Rocket Lab Launch Complex (RLLC)
aabbcc
Your satellite tracking list
Your tracking list is empty




NASA's NSSDC Master Catalog

Two Line Element Set (TLE):
1 43690U 18088A   19167.84901903 +.00000794 +00000-0 +35323-4 0  9995
2 43690 085.0369 319.7189 0014009 206.8675 153.1842 15.19649427033076
Source of the keplerian elements: AFSPC